Regional Weather Roundup
Issued by NWS

Home | Current Version | Previous Version | Graphics & Text | Print | Product List | Glossary On
Versions: 1 2 3 4 5 6 7 8 9 10 11 12 13 14 15 16 17 18 19 20 21 22 23 24 25 26 27 28 29 30 31 32 33 34 35 36 37 38 39 40 41 42 43 44 45 46 47 48 49 50
000
ASUS45 KABQ 031910
RWRNM
WEATHER ROUNDUP FOR NEW MEXICO
NATIONAL WEATHER SERVICE ALBUQUERQUE NM
100 PM MDT SUN MAY 03 2015

NOTE: "FAIR" MEANS FEW OR NO CLOUDS BELOW 12,000 FEET AGL WITH NO
       SIGNIFICANT WEATHER OR OBSTRUCTIONS TO VISION.

      THIS PRODUCT IS RELEASED AS TWO VERSIONS.  ONE VERSION NEAR
      THE TOP OF THE HOUR CONTAINING PRELIMINARY DATA FROM ALBUQUERQUE
      AND OTHER STATIONS.  A FINAL VERSION WITH ADDITIONAL DATA IS
      ISSUED ABOUT 10 MINUTES AFTER THE HOUR.

NMZ501-503-504-510>518-032000-
NORTHWEST PLATEAU/NORTHCENTRAL MOUNTAINS

CITY           SKY/WX    TMP DP  RH WIND       PRES   REMARKS
FARMINGTON     SUNNY     72  33  24 VRB7      30.02F
LOS ALAMOS     PTSUNNY   59  34  38 W12       30.13S
SANTA FE       MOSUNNY   72  25  17 W8G17     30.05F
TAOS           MOSUNNY   66  32  28 NE5       30.10F
ANGEL FIRE     FAIR      59  29  31 S8        30.15F

$$
NMZ402-403-502-505>509-032000-
WESTCENTRAL MOUNTAINS/SOUTHWEST MOUNTAINS

CITY           SKY/WX    TMP DP  RH WIND       PRES   REMARKS
GALLUP         MOSUNNY   70  30  22 SW9       30.07F
GRANTS         PTSUNNY   71  30  22 E5        30.10F
SILVER CITY      N/A     73  32  21 S10       30.06F

$$
NMZ407-409-411-412-032000-
SOUTHERN DESERTS

CITY           SKY/WX    TMP DP  RH WIND       PRES   REMARKS
LORDSBURG      FAIR      79  36  21 N3G9      29.99F
DEMING         SUNNY     82  34  17 VRB6      29.98F
LAS CRUCES     SUNNY     82  32  16 S8        29.99F
HOLLOMAN AFB   MOSUNNY   84  26  12 VRB3      29.95F
ALAMOGORDO     SUNNY     82  27  13 CALM      29.97F
T OR C         MOSUNNY   79  28  15 VRB7G21   29.98F

$$
NMZ519>523-032000-
CENTRAL VALLEYS/CENTRAL HIGHLANDS

CITY           SKY/WX    TMP DP  RH WIND       PRES   REMARKS
ALBUQUERQUE    MOSUNNY   75  33  21 VRB3      30.02F
DOUBLE EAGLE   PTSUNNY   72  34  25 SW9       30.05F
MORIARTY ARPT  LGT RAIN  62  37  39 W14G33    30.09R
CLINES CORNERS CLOUDY    66  30  26 W8        30.09F
BELEN          FAIR      76  27  16 NW3       30.02F
SOCORRO        FAIR      78  30  17 NE8       29.98F

$$
NMZ524>526-539-540-032000-
SOUTHCENTRAL MOUNTAINS

CITY           SKY/WX    TMP DP  RH WIND       PRES   REMARKS
RUIDOSO        MOSUNNY   72  32  23 NW3       30.11F

$$
NMZ527>531-032000-
NORTHEAST HIGHLANDS/NORTHEAST PLAINS

CITY           SKY/WX    TMP DP  RH WIND       PRES   REMARKS
LAS VEGAS      PTSUNNY   69  30  23 SE10G22   30.07F
RATON          PTSUNNY   74  28  18 CALM      30.01F
CLAYTON        PTSUNNY   78  35  21 S10       29.96F

$$
NMZ532>537-032000-
EASTCENTRAL PLAINS

CITY           SKY/WX    TMP DP  RH WIND       PRES   REMARKS
TUCUMCARI      PTSUNNY   80  44  27 VRB6      29.92F
CANNON AFB     PTSUNNY   79  44  29 W8        29.95F
CLOVIS AIRPORT PTSUNNY   82  45  26 S12       29.95F

$$
NMZ028-029-538-032000-
SOUTHEAST PLAINS

CITY           SKY/WX    TMP DP  RH WIND       PRES   REMARKS
ROSWELL        SUNNY     80  45  28 VRB5      29.93F
ARTESIA        SUNNY     84  41  21 SE14      29.92F
CARLSBAD       SUNNY     87  39  18 VRB3G16   29.91F
HOBBS          MOSUNNY   81  45  28 SE9       29.96F


$$


USA.gov is the U.S. government's official web portal to all federal, state and local government web resources and services.